[[{"header":{"parameterUnit":"m.s-1","parameterCategory":1,"la1":30.2991,"la2":30.254,"lo1":-89.0895,"lo2":-89.0444,"dy":0.0017,"dx":0.0017,"nx":28,"ny":28,"refTime":"2024-12-03T09:00:00:Z","depth":0,"parameterNumber":2,"parameterNumberName":"U-component_of_WINDS"},"data":[0,0,0,0,0,0,0,0,0,0,0,0,0,0,0,0,0,0,0,0,0,0,0,0,0,0,0,0,0,0,0,0,0,0,0,0,0,0,0,0,0,0,0,0,0,0,0,0,0,0,0,0,0,0,0,0,0,0,-3.4116,-3.4117,0,-3.4181,-3.4181,-3.4182,-3.4127,-3.4124,-3.4122,-3.412,-3.4186,-3.419,-3.4194,0,0,0,0,0,0,0,0,0,0,0,0,0,-3.3944,-3.3947,-3.4116,-3.4117,-3.4118,-3.4181,-3.4181,-3.4182,-3.4127,-3.4124,-3.4122,-3.4119,-3.4185,-3.419,-3.4194,0,0,0,0,0,0,0,0,0,0,0,0,0,-3.4015,-3.3948,-3.4116,-3.4098,-3.4097,-3.418,-3.4182,-3.4183,-3.4128,-3.4124,-3.4121,-3.4118,-3.4184,-3.4189,-3.4195,-3.43,0,0,-3.4213,-3.4215,0,0,0,0,0,0,0,0,-3.4011,-3.4021,-3.4099,-3.4099,-3.4098,-3.4142,-3.4145,-3.4222,-3.4129,-3.4116,-3.412,-3.4116,-3.4174,-3.4181,-3.4201,-3.4303,-3.4306,-3.4213,-3.4217,-3.422,-3.4221,0,0,0,0,0,0,0,-3.4006,-3.4018,-3.4141,-3.4101,-3.41,-3.4086,-3.4092,-3.4159,-3.4164,-3.4117,-3.4113,-3.4121,-3.4173,-3.4195,-3.4202,-3.4307,-3.4213,-3.4218,-3.4222,-3.4224,-3.4499,-3.4503,0,0,0,0,0,0,-3.4003,-3.4014,-3.4139,-3.4143,-3.4045,-3.4092,-3.4099,-3.4131,-3.4163,-3.4164,-3.4124,-3.4119,-3.4187,-3.4195,-3.4204,-3.433,-3.4219,-3.4225,-3.4228,-3.4496,-3.45,-3.4504,0,0,0,0,0,0,-3.3999,-3.4014,-3.4137,-3.4078,-3.4092,-3.4098,-3.4136,-3.4135,-3.4156,-3.4168,-3.4169,-3.4146,-3.4184,-3.4196,-3.4277,-3.4331,-3.4228,-3.4233,-3.4491,-3.4497,-3.4502,-3.4582,0,0,0,0,0,0,-3.3995,-3.4014,-3.4054,-3.4079,-3.4096,-3.4209,-3.4139,-3.4138,-3.4166,-3.416,-3.4189,-3.419,-3.4182,-3.4268,-3.4283,-3.4337,-3.4238,-3.4486,-3.4494,-3.45,-3.4575,-3.459,-3.4603,0,0,0,0,0,-3.3989,-3.4074,-3.4056,-3.4072,-3.4146,-3.4212,-3.4222,-3.4211,-3.4171,-3.4212,-3.4219,-3.4189,-3.4322,-3.4277,-3.4293,-3.435,-3.4483,-3.4492,-3.45,-3.4568,-3.4587,-3.4602,0,0,0,0,0,0,-3.4055,-3.4077,-3.4058,-3.4153,-3.4182,-3.4203,-3.4254,-3.4231,-3.4271,-3.4263,-3.4248,-3.4255,-3.4341,-3.4353,-3.4302,-3.4453,-3.4396,-3.4408,-3.4443,-3.4461,-3.4474,-3.447,-3.4242,0,0,0,0,0,-3.408,-3.4133,-3.4149,-3.4232,-3.4247,-3.4248,-3.4276,-3.4266,-3.4294,-3.4306,-3.4319,-3.4348,-3.4396,-3.4429,-3.4474,-3.4575,-3.4581,-3.4622,-3.4636,-3.4648,-3.4659,-3.4714,-3.4733,-3.4532,-3.4532,-3.4532,0,0,-3.4134,-3.4153,-3.4187,-3.4245,-3.4266,-3.432,-3.4258,-3.4318,-3.4359,-3.4315,-3.4393,-3.4404,-3.4435,-3.4527,-3.4568,-3.454,-3.4715,-3.4659,-3.4668,-3.4673,-3.4725,-3.4744,-3.4761,-3.4538,-3.4537,-3.4536,0,0,-3.4261,-3.4279,-3.4351,-3.4373,-3.4404,-3.4405,-3.4422,-3.4447,-3.4452,-3.453,-3.4498,-3.4545,-3.4629,-3.4652,-3.4675,-3.4809,-3.4784,-3.4824,-3.4899,-3.4952,-3.4968,-3.4982,-3.5031,-3.5049,-3.4835,-3.4835,-3.4835,0,-3.4324,-3.4405,-3.4391,-3.4453,-3.448,-3.4442,-3.4515,-3.4536,-3.4582,-3.4601,-3.4568,-3.4672,-3.469,-3.4787,-3.482,-3.4839,-3.4859,-3.4822,-3.4967,-3.4981,-3.4994,-3.504,-3.5059,-3.484,-3.4839,-3.4839,-3.4838,0,-3.4481,-3.4538,-3.4592,-3.4637,-3.4669,-3.4736,-3.4732,-3.4767,-3.4753,-3.4756,-3.4836,-3.4856,-3.4905,-3.4926,-3.4913,-3.5022,-3.5003,-3.4969,-3.4912,-3.5018,-3.5062,-3.5079,-3.4847,-3.4845,-3.4844,-3.4843,0,0,-3.4654,-3.4689,-3.4709,-3.4729,-3.476,-3.4804,-3.4869,-3.4916,-3.4947,-3.4978,-3.5033,-3.5104,-3.5072,-3.5098,-3.5087,-3.5134,-3.5241,-3.5094,-3.5095,-3.5122,-3.5363,-3.539,-3.541,-3.5222,-3.5226,-3.5228,-3.536,0,-3.4782,-3.4896,-3.4885,-3.4993,-3.5046,-3.501,-3.5066,-3.5092,-3.5097,-3.5141,-3.5146,-3.5197,-3.5151,-3.5166,-3.5211,-3.5218,-3.5289,-3.5208,-3.5274,-3.5277,-3.527,-3.5433,-3.5462,-3.5586,-3.5377,-3.538,-3.5382,0,-3.4949,-3.4987,-3.51,-3.5124,-3.5145,-3.5197,-3.524,-3.5282,-3.531,-3.531,-3.5339,-3.5319,-3.5385,-3.5324,-3.5414,-3.5359,-3.5385,-3.5393,-3.5397,-3.5404,-3.5337,-3.5446,-3.5625,-3.5644,-3.5409,-3.5406,-3.5405,0,-3.5065,-3.5144,-3.5222,-3.524,-3.5269,-3.5306,-3.532,-3.5344,-3.5374,-3.541,-3.5429,-3.5473,-3.5498,-3.5532,-3.5525,-3.5481,-3.5617,-3.5555,-3.5619,-3.562,-3.5651,-3.565,-3.5838,-3.5665,-3.5665,-3.5664,-3.5664,0,-3.5211,-3.5283,-3.5275,-3.5324,-3.5402,-3.5388,-3.5466,-3.5475,-3.5497,-3.5546,-3.5517,-3.5564,-3.555,-3.5597,-3.5591,-3.5667,-3.5678,-3.568,-3.5678,-3.5684,-3.5684,-3.5702,-3.5694,-3.5669,-3.5668,-3.5667,-3.5666,0,-3.5355,-3.5353,-3.5436,-3.5457,-3.5463,-3.5521,-3.5538,-3.5584,-3.5585,-3.5648,-3.5662,-3.5664,-3.5717,-3.5713,-3.5772,-3.5768,-3.5862,-3.5849,-3.5854,-3.5851,-3.5916,-3.5911,-3.6124,-3.6152,-3.5959,-3.5961,-3.5963,0,-3.545,-3.5504,-3.553,-3.5562,-3.5578,-3.5628,-3.5658,-3.5645,-3.5677,-3.5712,-3.5754,-3.5804,-3.5844,-3.593,-3.5937,-3.5982,-3.5971,-3.6042,-3.5977,-3.5982,-3.5974,-3.5971,-3.5977,-3.6056,-3.6058,-3.606,-3.6061,0,-3.5619,-3.5615,-3.5659,-3.5703,-3.5739,-3.5773,-3.5803,-3.583,-3.582,-3.5858,-3.5911,-3.5942,-3.6002,-3.6053,-3.6095,-3.6109,-3.6084,-3.6081,-3.6098,-3.6106,-3.6107,-3.6109,-3.589,-3.6077,-3.6075,-3.6074,-3.6073,-3.6073,-3.5742,-3.5789,-3.5815,-3.5865,-3.5886,-3.5915,-3.5959,-3.5966,-3.6011,-3.6059,-3.6048,-3.6109,-3.6135,-3.6189,-3.6207,-3.6254,-3.6228,-3.6253,-3.626,-3.6267,-3.6275,-3.6098,-3.6262,-3.6261,-3.6261,-3.626,-3.626,0,-3.5911,-3.5926,-3.5972,-3.6015,-3.6055,-3.6026,-3.6059,-3.6093,-3.6147,-3.6173,-3.6213,-3.6275,-3.6323,-3.6333,-3.6379,-3.6415,-3.6405,-3.6428,-3.6426,-3.643,-3.6295,-3.6276,-3.6435,-3.6435,-3.6435,-3.6435,-3.6435,-3.6435,-3.6004,-3.6081,-3.608,-3.6168,-3.6182,-3.6241,-3.6262,-3.6289,-3.631,-3.638,-3.642,-3.6426,-3.6446,-3.6493,-3.6536,-3.6537,-3.6557,-3.6585,-3.6582,-3.6457,-3.6439,-3.6422,-3.6405,-3.6589,-3.6589,-3.6713,-3.6714,-3.6715]},{"header":{"parameterUnit":"m.s-1","parameterCategory":1,"la1":30.2991,"la2":30.254,"lo1":-89.0895,"lo2":-89.0444,"dy":0.0017,"dx":0.0017,"nx":28,"ny":28,"refTime":"2024-12-03T09:00:00:Z","depth":0,"parameterNumber":3,"parameterNumberName":"V-component_of_WINDS"},"data":[0,0,0,0,0,0,0,0,0,0,0,0,0,0,0,0,0,0,0,0,0,0,0,0,0,0,0,0,0,0,0,0,0,0,0,0,0,0,0,0,0,0,0,0,0,0,0,0,0,0,0,0,0,0,0,0,0,0,-6.1394,-6.1395,0,-6.1447,-6.1448,-6.1448,-6.1378,-6.1376,-6.1373,-6.1371,-6.142,-6.1423,-6.1427,0,0,0,0,0,0,0,0,0,0,0,0,0,-6.1229,-6.1232,-6.1394,-6.1395,-6.1396,-6.1447,-6.1448,-6.1448,-6.1379,-6.1376,-6.1373,-6.137,-6.1419,-6.1423,-6.1427,0,0,0,0,0,0,0,0,0,0,0,0,0,-6.1293,-6.1233,-6.1394,-6.1367,-6.1365,-6.1447,-6.1448,-6.1448,-6.1379,-6.1376,-6.1372,-6.1368,-6.1417,-6.1423,-6.1428,-6.1537,0,0,-6.1445,-6.1447,0,0,0,0,0,0,0,0,-6.1289,-6.1299,-6.1371,-6.1369,-6.1367,-6.1402,-6.1407,-6.1478,-6.138,-6.1374,-6.1371,-6.1367,-6.1417,-6.1422,-6.144,-6.1539,-6.1541,-6.1445,-6.1448,-6.1451,-6.1452,0,0,0,0,0,0,0,-6.1285,-6.1296,-6.1415,-6.1372,-6.137,-6.1351,-6.1356,-6.142,-6.1416,-6.1374,-6.1369,-6.1377,-6.1415,-6.1435,-6.1441,-6.1542,-6.1445,-6.145,-6.1453,-6.1455,-6.1732,-6.1735,0,0,0,0,0,0,-6.1284,-6.1293,-6.1413,-6.1417,-6.1318,-6.1357,-6.1362,-6.1395,-6.1415,-6.1414,-6.138,-6.1373,-6.1427,-6.1434,-6.1442,-6.157,-6.1451,-6.1456,-6.1459,-6.1727,-6.1732,-6.1737,0,0,0,0,0,0,-6.1281,-6.1296,-6.1411,-6.1354,-6.1367,-6.1364,-6.1401,-6.1398,-6.1418,-6.1419,-6.1417,-6.1401,-6.1425,-6.1434,-6.1514,-6.1571,-6.1458,-6.1463,-6.1723,-6.1729,-6.1735,-6.1828,0,0,0,0,0,0,-6.1277,-6.1295,-6.1338,-6.1355,-6.137,-6.1484,-6.1404,-6.1402,-6.1428,-6.142,-6.1439,-6.1438,-6.1423,-6.1506,-6.1519,-6.1576,-6.1468,-6.1718,-6.1725,-6.1733,-6.182,-6.1837,-6.1851,0,0,0,0,0,-6.1271,-6.1361,-6.134,-6.1355,-6.1424,-6.1488,-6.1496,-6.1477,-6.1433,-6.1475,-6.1475,-6.1438,-6.1563,-6.1515,-6.1529,-6.1589,-6.1714,-6.1723,-6.1732,-6.1813,-6.1833,-6.1851,0,0,0,0,0,0,-6.1348,-6.1363,-6.134,-6.1439,-6.1463,-6.1476,-6.1528,-6.15,-6.1536,-6.1526,-6.15,-6.1505,-6.159,-6.1597,-6.1544,-6.1694,-6.1631,-6.1643,-6.1687,-6.1707,-6.1722,-6.1718,-6.1472,0,0,0,0,0,-6.1377,-6.143,-6.1439,-6.1525,-6.1538,-6.1531,-6.1558,-6.1542,-6.1565,-6.1575,-6.1581,-6.1604,-6.1648,-6.1677,-6.1718,-6.182,-6.1823,-6.1868,-6.1884,-6.1897,-6.1908,-6.1961,-6.1981,-6.1767,-6.1767,-6.1767,0,0,-6.1437,-6.1451,-6.1486,-6.1541,-6.1557,-6.1611,-6.154,-6.1599,-6.1638,-6.1583,-6.1659,-6.1664,-6.1688,-6.1779,-6.1819,-6.1787,-6.1967,-6.1908,-6.1918,-6.1922,-6.1973,-6.1993,-6.2011,-6.1773,-6.1772,-6.1771,0,0,-6.1573,-6.159,-6.1663,-6.1682,-6.1708,-6.1703,-6.1721,-6.1738,-6.1741,-6.1817,-6.1776,-6.1821,-6.1898,-6.1916,-6.1935,-6.2078,-6.2044,-6.2091,-6.2173,-6.2225,-6.2242,-6.2257,-6.2308,-6.2326,-6.2102,-6.2103,-6.2103,0,-6.1643,-6.1724,-6.1704,-6.1767,-6.1791,-6.1745,-6.1819,-6.1837,-6.1875,-6.1892,-6.1856,-6.1952,-6.1964,-6.2059,-6.2094,-6.2111,-6.2129,-6.2089,-6.2242,-6.2257,-6.227,-6.2318,-6.2337,-6.2108,-6.2108,-6.2107,-6.2106,0,-6.1809,-6.1865,-6.1921,-6.1961,-6.1992,-6.2059,-6.2048,-6.2081,-6.2062,-6.206,-6.2137,-6.2151,-6.2193,-6.2214,-6.2196,-6.2306,-6.2286,-6.2246,-6.2181,-6.2297,-6.2341,-6.2359,-6.2116,-6.2114,-6.2113,-6.2111,0,0,-6.1996,-6.2024,-6.2045,-6.2062,-6.2088,-6.213,-6.2195,-6.2238,-6.2267,-6.2294,-6.2347,-6.2413,-6.2377,-6.2399,-6.2381,-6.2428,-6.2539,-6.2382,-6.2382,-6.2411,-6.2661,-6.2691,-6.2713,-6.2517,-6.2521,-6.2523,-6.2659,0,-6.2132,-6.2246,-6.223,-6.2339,-6.239,-6.2346,-6.2402,-6.2423,-6.2423,-6.2465,-6.2463,-6.2511,-6.246,-6.2473,-6.2517,-6.2517,-6.2589,-6.2506,-6.2565,-6.2567,-6.2561,-6.2736,-6.2767,-6.2895,-6.2676,-6.2679,-6.2682,0,-6.2306,-6.2342,-6.2457,-6.2474,-6.2495,-6.2546,-6.2584,-6.2625,-6.2647,-6.2643,-6.2668,-6.2642,-6.2705,-6.264,-6.2725,-6.2669,-6.2692,-6.2695,-6.27,-6.2704,-6.2631,-6.2745,-6.2936,-6.2955,-6.2709,-6.2707,-6.2705,0,-6.2431,-6.2507,-6.2586,-6.2602,-6.2624,-6.2661,-6.2672,-6.2691,-6.2717,-6.275,-6.2767,-6.2805,-6.2827,-6.2856,-6.2841,-6.2795,-6.2929,-6.2862,-6.2927,-6.2927,-6.2957,-6.2956,-6.3154,-6.2972,-6.2972,-6.2971,-6.2971,0,-6.2584,-6.2656,-6.2642,-6.2691,-6.2769,-6.2749,-6.2826,-6.2831,-6.2848,-6.2896,-6.2859,-6.2904,-6.2881,-6.2924,-6.2912,-6.2984,-6.2994,-6.2992,-6.2988,-6.2995,-6.2996,-6.301,-6.3,-6.2977,-6.2975,-6.2974,-6.2974,0,-6.2737,-6.2731,-6.2814,-6.2828,-6.2834,-6.2891,-6.2903,-6.2947,-6.2944,-6.3004,-6.3017,-6.3011,-6.306,-6.3047,-6.3099,-6.3091,-6.3182,-6.3167,-6.3176,-6.3172,-6.3237,-6.3231,-6.3452,-6.3479,-6.328,-6.3282,-6.3283,0,-6.2836,-6.2891,-6.2912,-6.2942,-6.2956,-6.3004,-6.3032,-6.3013,-6.3043,-6.3072,-6.3113,-6.3158,-6.3193,-6.3272,-6.3271,-6.3311,-6.3296,-6.337,-6.3301,-6.3307,-6.3297,-6.3294,-6.3299,-6.3384,-6.3386,-6.3388,-6.339,0,-6.3012,-6.3006,-6.3048,-6.3089,-6.3124,-6.3154,-6.3182,-6.3208,-6.3191,-6.3226,-6.3275,-6.3303,-6.3356,-6.3401,-6.3437,-6.3446,-6.3415,-6.3411,-6.3428,-6.3437,-6.3439,-6.3439,-6.3213,-6.3406,-6.3405,-6.3404,-6.3403,-6.3402,-6.314,-6.3187,-6.3209,-6.3257,-6.3276,-6.3302,-6.3345,-6.3347,-6.3389,-6.3432,-6.3418,-6.3474,-6.3494,-6.3539,-6.3553,-6.3595,-6.3567,-6.3592,-6.3598,-6.3604,-6.3613,-6.3433,-6.3602,-6.3601,-6.3601,-6.36,-6.36,0,-6.3314,-6.3327,-6.3371,-6.3411,-6.3448,-6.3417,-6.3445,-6.3478,-6.3529,-6.3551,-6.3586,-6.3643,-6.3686,-6.3689,-6.373,-6.3763,-6.375,-6.3774,-6.3772,-6.3774,-6.3636,-6.3617,-6.3785,-6.3784,-6.3784,-6.3784,-6.3784,-6.3784,-6.3409,-6.3486,-6.3483,-6.3568,-6.3579,-6.3635,-6.3654,-6.3678,-6.3695,-6.376,-6.3797,-6.3799,-6.3813,-6.3853,-6.3891,-6.3891,-6.3907,-6.3937,-6.3931,-6.3802,-6.3784,-6.3766,-6.3749,-6.3941,-6.3941,-6.4066,-6.4067,-6.4068]}]]